Location: Geisleden
(51.3507°N, 10.1959°E)
Time: 13:12:04
(UTC+00:00)

Daily predictions for brighter satellites

Satellite Brightness Start Highest point End
(mag) Time Altitude Azimuth Time Altitude Azimuth Time Altitude Azimuth
USA 234 4.0 19:40:21 10° ENE 19:46:43 55° N 19:53:05 10° WNW
RESURS DK-1 2.3 19:47:45 10° SSW 19:51:54 78° ESE 19:56:05 10° NE
Meteor 2-15 4.5 19:47:06 10° N 19:53:11 71° ENE 19:59:13 10° SSE
USA 245 4.0 19:49:08 10° SE 19:53:58 51° ENE 19:57:54 10° N
Cosmos 2322 Rocket 2.8 19:48:44 10° NNW 19:54:10 45° NE 19:59:33 10° ESE
COSMOS 2406 3.9 19:49:43 10° SW 19:55:22 63° NW 20:01:04 10° NNE
BREEZE-M DEB (TANK) 4.0 19:51:50 10° SSW 19:55:31 39° SE 20:06:55 10° ENE
Gblst 52 Del rocket 4.4 19:52:17 10° W 19:58:05 90° SSE 20:04:41 10° E
Cosmos 304 Rocket 3.8 19:53:55 10° NNW 19:58:44 73° ENE 20:03:30 10° SSE
Cosmos 1933 3.5 19:56:00 10° N 20:00:01 57° ENE 20:03:59 10° SSE
BREEZE-M DEB (TANK) 3.9 19:57:15 10° W 20:00:18 45° SSW 20:08:30 10° SE
Cosmos 1538 Rocket 4.0 19:57:38 10° S 20:02:46 62° ESE 20:07:53 10° NNE
ERS-2 2.3 20:00:46 10° NNE 20:04:25 79° WNW 20:08:04 10° SSW
Resurs 01 Rocket 2.1 20:00:32 10° S 20:04:56 63° WSW 20:09:23 10° NNW
Cosmos 2151 3.1 20:02:58 10° S 20:07:08 59° E 20:11:21 10° NNE
Cosmos 2098 Rocket 2.5 20:05:13 10° SSW 20:08:22 82° W 20:12:12 10° N
Cosmos 44 Rocket 4.0 20:03:34 10° SW 20:08:45 65° NW 20:13:59 10° NE
Gbstr 26 Del rocket 2.9 20:05:32 10° W 20:09:11 56° SSW 20:12:56 11° SE
Meteor 2-15 Rocket 4.5 20:05:13 10° N 20:11:20 76° ENE 20:17:25 10° SSE
Meteor 2-3 Rocket 3.9 20:06:53 10° S 20:12:22 54° E 20:17:58 10° NNE
CARTOSAT-1 3.7 20:09:41 10° SSE 20:13:56 60° ENE 20:18:12 10° N
Cosmos 2219 Rocket 3.9 20:10:53 10° NNW 20:15:21 23° NE 20:19:48 10° E
Ariane Rocket 4.4 20:14:52 10° SSW 20:19:32 36° W 20:24:12 10° NNW
SL-16 R/B 2.2 20:17:06 10° NNW 20:22:49 83° ENE 20:28:03 12° SSE
Cosmos 1782 2.9 20:22:27 10° N 20:26:29 66° ENE 20:30:03 13° SSE
CZ-4C R/B 4.4 20:22:07 10° WNW 20:27:10 29° N 20:33:09 10° NE
Cosmos 371 Rocket 4.4 20:22:45 10° NW 20:27:15 40° WSW 20:31:44 10° S
COSMOS 2428 4.4 20:25:09 10° NNW 20:29:49 25° NE 20:34:28 10° E
ARIANE 5 R/B 2.7 20:26:51 12° SSE 20:31:02 75° ENE 20:35:29 10° NNW
Cosmos 1271 Rocket 2.9 20:29:04 10° NNW 20:33:04 78° W 20:36:55 11° S
USA 276 3.1 20:33:57 10° W 20:36:49 32° SSW 20:38:32 18° SSE
SPOT 1/Viking Rocket 4.1 20:32:12 10° S 20:37:19 58° W 20:42:30 10° NNW
BREEZE-M DEB (TANK) 3.5 20:35:08 10° W 20:38:07 33° SSW 20:43:14 14° SE
Cosmos 2195 Rocket 4.4 20:33:25 10° S 20:39:32 84° E 20:45:41 10° N
Cosmos 1151 Rocket 3.0 20:35:43 10° N 20:40:06 73° E 20:43:40 15° SSE
Cosmos 1766 Rocket 3.8 20:37:42 12° SSE 20:41:34 50° E 20:45:49 10° NNE
ATLAS 5 CENTAUR R/B 3.5 20:37:27 10° NW 20:41:59 32° NNE 20:47:16 10° E
Cosmos 1328 Rocket 3.7 20:39:53 10° N 20:44:20 63° ENE 20:47:39 17° SSE
Cosmos 1174 4.4 20:41:38 10° NNW 20:44:26 31° NE 20:46:29 15° E
ATLAS 2AS CENTAUR R/B 3.7 20:38:54 10° WSW 20:46:42 59° NW 20:54:13 10° NE
Cosmos 923 Rocket 4.0 20:43:51 10° SSW 20:49:09 69° ESE 20:54:29 10° NNE
ATLAS 3B R/B 3.9 20:43:31 10° NW 20:49:51 36° WSW 20:56:22 10° S
Terra 1.9 20:47:56 17° SSE 20:51:37 70° ENE 20:56:23 10° N
USA 267 4.1 20:47:49 10° ENE 20:53:03 25° SE 20:58:15 10° S
SPOT 5 2.6 20:50:48 16° SSE 20:54:17 82° WSW 20:58:44 10° NNW
Cosmos 1092 Rocket 4.3 20:51:26 10° SSW 20:57:40 72° WNW 21:04:02 10° N
Cosmos 2082 Rocket 3.6 20:52:30 10° WSW 20:57:51 42° NW 21:03:15 10° NNE
Cosmos 2056 Rocket 3.6 20:52:55 10° NNW 20:58:20 80° ENE 21:02:09 19° SSE
NOSS 2-1 (C) 3.8 21:00:51 25° SE 21:01:24 27° ESE 21:04:18 10° ENE
BREEZE-M DEB (TANK) 1.6 21:00:59 10° WSW 21:03:01 46° S 21:03:12 44° SSE
ERS-1 Rocket 3.2 21:00:35 15° S 21:04:46 69° WSW 21:09:48 10° NNW
Cosmos 2360 Rocket 2.2 21:00:32 10° NNW 21:06:12 83° ENE 21:10:08 21° SSE
SL-27 R/B 3.3 21:06:23 26° SE 21:07:37 33° ESE 21:10:55 10° NE
Meteor 2-21 4.5 21:02:37 13° S 21:08:10 69° E 21:14:17 10° NNE
NOSS 2-1 (D) 3.6 21:08:17 28° SSE 21:09:04 32° SE 21:12:07 10° ENE
Cosmos 2026 Rocket 4.3 21:04:20 10° SSW 21:10:40 71° WNW 21:16:57 10° N
GP-B 3.9 21:07:21 10° N 21:11:40 50° W 21:15:57 10° SSW
ISS -1.3 21:13:59 10° WSW 21:15:13 12° SW 21:15:56 11° SSW
Cosmos 2333 Rocket 2.6 21:11:11 10° NNW 21:16:46 56° NE 21:20:38 20° SE
Meteor 1-10 Rocket 4.2 21:13:36 10° N 21:19:12 81° ENE 21:22:51 22° SSE
Cosmos 1371 Rocket 4.3 21:14:27 10° NNW 21:19:47 66° WSW 21:23:22 21° S
Cosmos 1812 3.0 21:16:55 10° NNW 21:20:44 63° W 21:23:04 22° S
Cosmos 2112 Rocket 4.0 21:18:28 10° SSW 21:23:47 85° ESE 21:29:05 10° NNE
Cosmos 1680 Rocket 3.6 21:19:00 10° SSW 21:24:17 84° WNW 21:29:35 10° NNE
Cosmos 1500 Rocket 4.2 21:22:34 26° SE 21:24:27 40° E 21:28:37 10° NNE
Cosmos 2322 4.0 21:21:25 10° NNW 21:27:07 62° NE 21:30:49 22° SE
Okean 3 Rocket 4.0 21:24:58 12° SSW 21:29:09 62° WNW 21:33:39 10° N
USA 234 3.4 21:22:52 10° ESE 21:29:25 76° NNE 21:35:59 10° WNW
Cosmos 292 Rocket 3.7 21:26:17 10° NNW 21:31:06 88° WSW 21:33:40 28° SSE
COBE Rocket 4.4 21:29:38 24° SE 21:32:02 46° ENE 21:36:32 10° N
Cosmos 2237 Rocket 3.8 21:32:19 10° NNW 21:37:12 28° NE 21:42:04 10° E
Cosmos 2322 Rocket 3.1 21:32:59 10° NW 21:38:10 39° WSW 21:41:46 18° SSW
Meteor 2-16 Rocket 4.4 21:35:24 20° S 21:39:41 76° E 21:45:47 10° NNE
Cosmos 1408 Rocket 3.6 21:40:12 22° SSW 21:42:57 80° W 21:47:19 10° N
Cosmos 2285 Rocket 4.2 21:37:34 10° NNW 21:43:52 67° ENE 21:47:43 25° SE
Cosmos 1743 Rocket 3.7 21:42:22 31° SSE 21:44:20 60° E 21:48:43 10° NNE
IRIDIUM 106 4.4 21:40:29 10° N 21:45:41 64° E 21:48:19 29° SSE
Cosmos 2315 Rocket 4.1 21:42:15 10° N 21:48:36 73° ENE 21:52:17 27° SSE
Gblst 52 Del rocket 4.5 21:43:54 10° W 21:50:01 81° SSW 21:56:46 11° ESE
Sich 1 3.9 21:51:50 29° SE 21:53:01 35° E 21:56:58 10° NNE
Cosmos 2084 3.2 21:48:59 10° SW 21:53:05 85° SE 21:57:18 10° NE
Cosmos 2266 Rocket 3.9 21:53:29 22° S 21:57:36 88° E 22:03:53 10° N
Cosmos 1862 4.3 21:57:03 17° SW 21:59:50 43° WNW 22:03:40 10° N
Cosmos 2219 Rocket 2.1 21:54:28 10° NNW 22:00:07 88° ENE 22:02:58 30° SSE
SL-16 R/B 4.3 21:59:52 10° NNW 22:04:05 21° NE 22:08:18 10° E
Cosmos 2228 Rocket 3.0 21:59:56 10° N 22:04:22 88° W 22:06:05 37° S
H-2A R/B 3.9 22:00:33 10° N 22:04:41 61° WNW 22:07:15 22° SW
SL-16 R/B 4.1 22:02:18 10° NW 22:06:14 20° W 22:09:55 11° SW
NOSS 2-1 (E) 2.9 22:05:22 25° SW 22:07:07 81° NW 22:10:43 10° NE
USA 40 PKM 4.2 22:03:21 10° WNW 22:07:08 86° NNE 22:08:39 33° ESE
NOSS 3-1 (C) 4.1 22:02:09 10° NW 22:09:27 67° SW 22:14:30 27° SSE
Cosmos 2333 4.4 22:04:07 10° NW 22:09:38 60° WSW 22:12:13 31° S
COSMOS 2455 2.9 22:09:10 28° S 22:12:15 56° ESE 22:18:09 10° NE
COSMOS 2428 2.7 22:09:07 10° NNW 22:14:52 88° WSW 22:17:35 33° SSE
CZ-4C R/B 4.2 22:11:41 10° NW 22:17:31 35° NNE 22:24:26 10° E
Cosmos 1655 Rocket 4.4 22:12:44 18° SSW 22:17:35 64° WNW 22:23:58 10° N
Cosmos 1602 4.1 22:17:48 42° ESE 22:18:24 46° E 22:22:06 10° NNE
Cosmos 1515 3.7 22:16:13 10° N 22:20:01 71° E 22:20:48 51° SE
Cosmos 1862 Rocket 4.4 22:17:22 10° N 22:21:30 39° ENE 22:22:56 30° ESE
Spot 4 3.8 22:21:45 37° S 22:23:39 78° WSW 22:28:30 10° NNW
USA 229 DEB 3.9 22:16:28 10° NW 22:23:44 79° SW 22:28:16 27° SSE
USA 229 3.9 22:16:33 10° NW 22:23:50 79° SW 22:28:23 27° SSE
ATLAS 5 CENTAUR R/B 2.2 22:21:49 10° NW 22:27:12 90° NE 22:30:39 28° SE
Terra 3.9 22:26:49 11° SW 22:29:53 18° W 22:33:08 10° NW
Cosmos 1452 Rocket 3.9 22:25:40 10° NNW 22:30:47 54° WSW 22:32:49 34° SSW
Cosmos 1707 Rocket 3.5 22:26:39 10° N 22:31:02 81° E 22:32:18 46° SSE
COSMOS 2487 2.2 22:31:49 67° SSW 22:32:14 86° WNW 22:35:39 10° NNE
ALOS 2 2.5 22:33:57 44° SSE 22:35:18 84° ENE 22:39:44 10° NNW
USA 267 3.2 22:30:18 10° ENE 22:36:51 70° SE 22:43:23 10° SW
Nadezhda 1 Rocket 4.4 22:34:51 10° N 22:41:10 56° ENE 22:44:26 28° SE
NOSS 3-1 (A) 4.1 22:36:50 10° NW 22:44:08 66° SW 22:48:48 29° SSE
Cosmos 1666 3.9 22:44:25 27° E 22:44:46 28° E 22:48:06 10° NNE
SL-08 ROCKET BODY 4.5 22:44:14 35° SSE 22:46:53 69° E 22:53:01 10° NNE
Cosmos 2360 Rocket 4.0 22:45:37 10° NW 22:49:30 19° W 22:51:53 15° SW
Cosmos 1805 Rocket 4.1 22:49:13 31° SW 22:51:03 53° WNW 22:55:25 10° N
NOSS 2-2 (D) 4.4 22:50:48 10° NW 22:55:43 72° NE 23:00:43 19° SE
Cosmos 1110 Rocket 4.2 22:51:37 10° NNW 22:56:53 61° WSW 22:58:40 39° S
Meteor 1-20 Rocket 4.3 22:54:51 31° SSW 22:57:36 71° WNW 23:03:20 10° N
Cosmos 1980 3.7 22:53:01 10° NNW 22:58:45 84° ENE 23:01:19 34° SE
Cosmos 2333 Rocket 3.3 22:55:54 10° NW 23:00:47 31° WSW 23:02:38 25° SW
Cosmos 1331 Rocket 4.2 22:57:08 10° NNW 23:02:19 60° WSW 23:03:58 40° SSW
Nimbus 7 Rocket 4.4 23:05:26 10° NNE 23:11:29 73° ESE 23:14:02 36° S
USA 234 3.5 23:10:02 33° SSE 23:12:41 50° SW 23:19:03 10° WNW
SL-16 R/B 4.5 23:08:27 10° E 23:13:07 23° NE 23:17:47 10° N
NOSS 0 Rocket 4.1 23:07:27 10° NW 23:13:36 60° WSW 23:16:01 36° S
Cosmos 1340 Rocket 3.6 23:13:35 35° ESE 23:14:00 36° E 23:17:39 10° NNE
Okean 1-7 3.5 23:13:31 10° N 23:17:41 49° ENE 23:18:54 37° ESE
Cosmos 2297 Rocket 2.7 23:17:12 36° SSE 23:18:51 46° ESE 23:24:14 10° NE
Cosmos 2237 Rocket 2.2 23:16:09 10° NNW 23:21:50 74° WSW 23:24:02 39° SSE
Lacrosse 5 2.6 23:21:59 34° SE 23:22:05 34° SE 23:26:39 10° ENE
Cosmos 2084 Rocket 3.4 23:19:28 10° NW 23:23:36 61° SW 23:24:07 56° SSW
Cosmos 2242 Rocket 3.9 23:19:27 10° N 23:23:49 58° ENE 23:25:08 40° SE
NOSS 2-2 (E) 4.3 23:19:39 10° NW 23:24:51 73° SW 23:28:32 29° SSE
Cosmos 1500 3.6 23:26:57 45° WSW 23:27:41 54° WNW 23:31:29 10° N
Cosmos 1470 Rocket 3.4 23:29:03 53° S 23:30:03 89° WNW 23:34:24 10° N
Cosmos 2227 Rocket 2.8 23:28:53 34° SSE 23:30:33 43° ESE 23:35:53 10° NE
Cosmos 1633 Rocket 3.6 23:33:06 36° SW 23:34:27 49° WNW 23:38:42 10° N
Cosmos 1933 Rocket 3.6 23:35:34 49° SSE 23:36:39 72° E 23:41:08 10° NNE
Cosmos 2219 Rocket 3.9 23:39:40 10° WNW 23:43:19 18° W 23:44:40 17° WSW
Meteor 1-11 Rocket 4.1 23:41:19 33° SSE 23:43:27 52° E 23:48:48 10° NNE
NOSS 2-2 (C) 4.4 23:43:56 10° NW 23:49:04 62° SW 23:52:23 30° SSE
Cosmos 2263 Rocket 4.4 23:46:42 10° ESE 23:49:09 13° E 23:51:37 10° ENE
SL-16 R/B 2.3 23:43:32 10° NNW 23:49:13 73° ENE 23:52:42 24° SE
Cosmos 1992 Rocket 4.0 23:44:30 10° NNW 23:49:48 84° ENE 23:52:06 34° SSE
PSLV R/B 3.7 23:45:53 10° NNE 23:50:41 88° ESE 23:52:12 44° SSW
Cosmos 1269 Rocket 3.9 23:50:05 40° SSW 23:52:05 90° WSW 23:57:25 10° NNE
Resurs 1-4 Rocket 3.9 23:48:31 10° NE 23:52:31 21° E 23:55:13 15° SE
ADEOS Rocket 4.5 23:48:20 10° ESE 23:52:53 27° ENE 23:57:28 10° N
